Current weather by "City, St" or "zip code"  
 

Current Conditions: Ames, Ames Municipal Airport, IA

Fair


33.0 F

Last Updated on Oct 29 2020, 7:53 pm CDT
Humidity: 70%
Wind Speed: N 3.5 mph
Barometer 30.13 in
Dewpoint: 24.1 F
Visibility: 10.00 mi
Precip: --
Heat Index: NA
Wind Chill: NA
Current conditions at:

Ames, Ames Municipal Airport, IA (KAMW)

Lat: 41.99056 Lon: 93.61889

Local Radar Image active severe weather and emergency alerts image image weather storm and storm spotter reports image weather observation monitoring service image
Local
Radar
Active
Alerts
Storm Reports Obs
Monitoring

Sign-up For Email & Text Message Weather Alert Notification Services



Advertise Here

Observation History for Ames, Ames Municipal Airport, IA


Time Wind
(mph)
Vis
(mi)
Weather Precip (in) Temperature (F) Relative
Humidity
Wind
Chill
(F)
Heat
Index
(F)
Pressure
Air Dwpt altimeter
(in)
sea level
(mb)
Rmks
7:53 pm CDT N 3.5 10.00 Fair -- 33.0 24.1 70% NA NA 30.13 1020.9
6:53 pm CDT N 8.1 10.00 Mostly Cloudy -- 35.0 25.0 67% 28 NA 30.12 1020.7
5:53 pm CDT N 9.2 10.00 Overcast -- 39.0 26.1 60% 33 NA 30.12 1020.6
4:53 pm CDT NW 11.5 10.00 Overcast -- 40.0 26.1 58% 33 NA 30.12 1020.6
3:53 pm CDT N 12.7 G 20.7 10.00 Overcast -- 41.0 27.0 57% 34 NA 30.10 1019.9
2:53 pm CDT N 13.8 10.00 Overcast -- 41.0 28.0 60% 33 NA 30.09 1019.5
1:53 pm CDT N 13.8 10.00 Overcast -- 41.0 28.9 62% 33 NA 30.09 1019.4
12:53 pm CDT N 16.1 10.00 Overcast -- 40.0 28.9 65% 32 NA 30.10 1019.7
11:53 am CDT N 17.3 G 26.5 10.00 Overcast -- 40.0 30.0 68% 31 NA 30.11 1020.1
10:53 am CDT N 16.1 G 25.3 10.00 Overcast -- 40.0 30.0 68% 32 NA 30.10 1019.6
9:53 am CDT 10.00 Overcast -- 37.0 30.0 76% NA NA 30.10 1019.6
8:53 am CDT N 12.7 10.00 Overcast -- 37.0 30.9 79% 29 NA 30.08 1019.0
7:53 am CDT N 13.8 10.00 Overcast -- 36.0 30.9 82% 27 NA 30.06 1018.2
6:53 am CDT N 15.0 10.00 Overcast -- 35.0 30.9 85% 25 NA 30.04 1017.8
5:53 am CDT N 17.3 G 31.1 10.00 Fair -- 35.0 30.9 85% 25 NA 30.02 1016.7
4:53 am CDT N 17.3 G 26.5 10.00 Mostly Cloudy -- 36.0 30.9 82% 26 NA 30.00 1015.9
3:53 am CDT N 11.5 10.00 Overcast -- 36.0 30.9 82% 28 NA 30.01 1016.4
2:53 am CDT N 17.3 G 25.3 10.00 A Few Clouds -- 36.0 32.0 86% 26 NA 30.01 1016.3
12:53 am CDT N 15.0 10.00 Fair -- 40.0 34.0 79% 32 NA 29.99 1015.7
11:53 pm CDT N 19.6 G 28.8 10.00 Fair -- 41.0 35.1 79% 32 NA 29.98 1015.4
10:53 pm CDT N 16.1 G 27.6 10.00 Fair -- 43.0 35.1 74% 35 NA 29.98 1015.3
9:53 pm CDT N 13.8 G 23.0 10.00 Fair -- 46.0 34.0 63% 40 NA 29.98 1015.6
8:53 pm CDT NW 6.9 10.00 Fair -- 46.0 33.1 61% 42 NA 29.98 1015.5

Regional Weather Observation


Webster City Municipal Airport, IA (KEBS)

Fair
28.0 F

Ames, Ames Municipal Airport, IA (KAMW)

Fair
33.0 F

Iowa Falls Municipal Airport, IA (KIFA)

Fair
30.0 F

Clarion, IA (KCAV)

Mostly Cloudy
32.0 F

Fort Dodge, IA (KFOD)

Fair
28.0 F

Perry Municipal Airport, IA (KPRO)

Fair
31.0 F